Regional Weather Roundup
Issued by NWS

Home | Current Version | Previous Version | Graphics & Text | Print | Product List | Glossary On
Versions: 1 2 3 4 5 6 7 8 9 10 11 12 13 14 15 16 17 18 19 20 21 22 23 24 25 26 27 28 29 30 31 32 33 34 35 36 37 38 39 40 41 42 43 44 45 46 47 48 49 50
000
ASUS43 KFSD 220702
RWRSD

WEATHER ROUNDUP FOR SOUTH DAKOTA
NATIONAL WEATHER SERVICE SIOUX FALLS SD
200 AM CDT FRI AUG 22 2014

NOTE: "FAIR" INDICATES FEW OR NO CLOUDS BELOW 12,000 FEET WITH NO
SIGNIFICANT WEATHER AND/OR OBSTRUCTIONS TO VISIBILITY.


SDZ001>005-009-010-012>017-220800-
NORTHWEST AND NORTH CENTRAL SOUTH DAKOTA

CITY           SKY/WX    TMP DP  RH WIND       PRES   REMARKS
BUFFALO          N/A     61  59  93 N8        29.99R
FAITH            N/A     63  62  97 NW10G24   30.04R
MOBRIDGE       MOCLDY    67  63  87 E10       29.91R
$$

SDZ012>016-024>037-041>051-057-063-072>074-220800-
SOUTHWEST AND SOUTH CENTRAL SOUTH DAKOTA

CITY           SKY/WX    TMP DP  RH WIND       PRES   REMARKS
RAPID CTY ARPT PTCLDY    63  57  81 N9        30.00R
PIERRE         PTCLDY    66  63  90 E8        29.91F
CUSTER         PTCLDY    55  51  86 N3        30.12S
ELLSWORTH AFB  MOCLDY    65  60  82 N20       30.01R
PHILIP         MOCLDY    68  58  70 E5        29.94R
PINE RIDGE     PTCLDY    74  52  46 S13       29.98R
WINNER         FAIR      68  62  81 SE9       29.94F
$$

SDZ004>011-016>023-039-040-220800-
NORTHEAST SOUTH DAKOTA

CITY           SKY/WX    TMP DP  RH WIND       PRES   REMARKS
ABERDEEN       CLEAR     64  63  96 NW3       29.90F
WATERTOWN      FOG       65  65 100 CALM      29.91F VSB 1/4
SISSETON         N/A     65  65 100 CALM      29.88S
$$

SDZ017-020-022-023-036>040-048>070-220800-
SOUTHEAST SOUTH DAKOTA

CITY           SKY/WX    TMP DP  RH WIND       PRES   REMARKS
SIOUX FALLS    LGT RAIN  69  67  93 CALM      29.89F
HURON          CLEAR     62  61  96 CALM      29.91S
CHAMBERLAIN    CLEAR     65  63  93 SE3       29.95R
MITCHELL       CLEAR     67  65  93 W3        29.92R
YANKTON        CLEAR     73  68  83 NW3       29.88F
$$

ABBREVIATIONS USED IN REMARKS
   TC - TEMPERATURE IN CELSIUS
  WCI - WIND CHILL INDEX
   HX - HEAT INDEX
  VSB - VISIBILITY




USA.gov is the U.S. government's official web portal to all federal, state and local government web resources and services.